(90014) = 2002 TO260

Discovered at Socorro on 2002-10-09 by LINEAR.

Orbit

Orbit type: Main Belt

Note: WebGL enabled browser required.

epoch2024-03-31.0
epoch JD2460400.5
perihelion date2022-05-16.26112
perihelion JD2459715.76112
argument of perihelion (°)284.35644
ascending node (°)59.76220
inclination (°)5.03022
eccentricity0.2056268
perihelion distance (AU)2.0002624
Tisserand w.r.t. Jupiter3.4
ΔV w.r.t. Earth (km/sec)9.0
semimajor axis (AU)2.5180387
mean anomaly (°)168.90217
mean daily motion (°/day)0.24666660
aphelion distance (AU)3.036
period (years)4.0
P-vector [x]0.95860687
P-vector [y]-0.21555333
P-vector [z]-0.18603666
Q-vector [x]0.27447145
Q-vector [y]0.87337286
Q-vector [z]0.40234969
absolute magnitude16.71
phase slope0.15
uncertainty0
referenceMPEC 2024-E109
observations used739
oppositions21
arc length (days)10690
first opposition used1994
last opposition used2024
residual rms (arc-secs)0.69
perturbers coarse indicatorM-v
perturbers precise indicator003Ek
first observation date used1994-11-29.0
last observation date used2024-03-06.0
computer nameMPCLINUX
JD of orbit computation2456966.710337
perihelion JD uncertainty (days)8.5997E-05
argument of perihelion uncertainty (°)4.5514E-05
ascending node uncertainty (°)3.9572E-05
inclination uncertainty (°)8.1116E-06
eccentricity uncertainty 5.4988E-08
perihelion distance uncertainty (AU)1.3917E-07
Minimum Orbit Intersection Distances (in AU)
for orbit epoch: 2460400.5, reference: E2024-EA9
Mercury1.60892
Venus1.27319
Earth0.99999
Mars0.62367
Jupiter2.37915
Saturn6.24218
Uranus15.4127
Neptune27.3637

Observations

751 total observations over interval: 1994 11 29.11024 – 2024 03 06.318537
These data are available for download (format description).

Date (UT) J2000 RA J2000 Dec Magn Location Ref
1994 11 29.11024 02 30 30.72 +13 24 27.3   691 – Steward Observatory, Kitt Peak-Spacewatch MPS 69981
1994 11 29.13381 02 30 29.78 +13 24 27.8 19.5 V 691 – Steward Observatory, Kitt Peak-Spacewatch MPS 69981
1994 11 29.15741 02 30 28.82 +13 24 28.1   691 – Steward Observatory, Kitt Peak-Spacewatch MPS 69981
1996 01 27.44592 10 28 45.74 +17 16 34.9 21.7 V 691 – Steward Observatory, Kitt Peak-Spacewatch MPS 80140
1996 01 27.46772 10 28 44.78 +17 16 41.7 21.7 V 691 – Steward Observatory, Kitt Peak-Spacewatch MPS 80140
1996 01 27.48951 10 28 43.82 +17 16 49.4 21.5 V 691 – Steward Observatory, Kitt Peak-Spacewatch MPS 80140
1998 12 11.07863 02 29 34.91 +14 03 52.6 20.3 V 691 – Steward Observatory, Kitt Peak-Spacewatch MPS 69981
1998 12 11.10033 02 29 34.46 +14 03 55.1 20.8 V 691 – Steward Observatory, Kitt Peak-Spacewatch MPS 69981
1998 12 11.12176 02 29 34.03 +14 03 56.7 20.6 V 691 – Steward Observatory, Kitt Peak-Spacewatch MPS 69981
1998 12 15.07397 02 28 36.66 +14 10 25.4 21.0 V 691 – Steward Observatory, Kitt Peak-Spacewatch MPS 80140
1998 12 15.09562 02 28 36.36 +14 10 28.0 20.8 V 691 – Steward Observatory, Kitt Peak-Spacewatch MPS 80140
1998 12 15.11780 02 28 36.09 +14 10 30.3 20.8 V 691 – Steward Observatory, Kitt Peak-Spacewatch MPS 80140
2001 05 22.24325 14 52 18.05 -15 11 27.2 20.7 V 691 – Steward Observatory, Kitt Peak-Spacewatch MPS 69981
2001 05 22.26480 14 52 16.81 -15 11 25.0 20.4 V 691 – Steward Observatory, Kitt Peak-Spacewatch MPS 69981
2001 05 22.28605 14 52 15.55 -15 11 21.9 20.6 V 691 – Steward Observatory, Kitt Peak-Spacewatch MPS 69981
2002 10 09.36551 03 24 07.57 +15 03 10.8 19.8   704 – Lincoln Laboratory ETS, New Mexico MPS 64226
2002 10 09.38122 03 24 07.14 +15 03 11.3 20.2   704 – Lincoln Laboratory ETS, New Mexico MPS 64226
2002 10 09.39696 03 24 06.56 +15 03 12.2 20.1   704 – Lincoln Laboratory ETS, New Mexico MPS 64226
2002 10 11.35862 03 23 03.67 +15 02 54.6 20.1   704 – Lincoln Laboratory ETS, New Mexico MPS 64226
2002 10 11.37448 03 23 03.04 +15 02 52.9 19.7   704 – Lincoln Laboratory ETS, New Mexico MPS 64226
2002 10 11.39036 03 23 02.44 +15 02 52.6 20.0   704 – Lincoln Laboratory ETS, New Mexico MPS 64226
2002 11 01.03191 03 05 44.22 +14 44 50.8 19.2 V 950 – La Palma MPS 66214
2002 11 01.04765 03 05 43.21 +14 44 49.7   950 – La Palma MPS 66214
2002 11 01.06755 03 05 41.91 +14 44 48.1   950 – La Palma MPS 66214
2002 11 02.12511 03 04 36.22 +14 43 22.7 19.0 V 950 – La Palma MPS 66214
2002 11 02.14095 03 04 35.19 +14 43 21.4   950 – La Palma MPS 66214
2002 11 02.16064 03 04 33.91 +14 43 19.7   950 – La Palma MPS 66214
2002 11 04.95942 03 01 38.80 +14 39 30.3 19.9 V 950 – La Palma MPS 66214
2002 11 04.97514 03 01 37.85 +14 39 29.1   950 – La Palma MPS 66214
2002 11 04.99481 03 01 36.55 +14 39 27.6   950 – La Palma MPS 66214
2002 11 06.00667 03 00 32.36 +14 38 03.1 19.2 V 950 – La Palma MPS 66214
2002 11 06.02148 03 00 31.39 +14 38 01.9   950 – La Palma MPS 66214
2002 11 06.03629 03 00 30.41 +14 38 00.7   950 – La Palma MPS 66214
2002 11 06.24236 03 00 17.51 +14 37 44.9 19.3   704 – Lincoln Laboratory ETS, New Mexico MPS 66214
2002 11 06.25900 03 00 16.41 +14 37 43.2 19.2   704 – Lincoln Laboratory ETS, New Mexico MPS 66214
2002 11 06.27567 03 00 15.25 +14 37 42.2 19.5   704 – Lincoln Laboratory ETS, New Mexico MPS 66214
2002 11 06.29235 03 00 14.23 +14 37 39.7 20.1   704 – Lincoln Laboratory ETS, New Mexico MPS 66214
2002 11 06.30905 03 00 13.11 +14 37 39.3 19.2   704 – Lincoln Laboratory ETS, New Mexico MPS 66214
2002 11 07.28417 02 59 11.53 +14 36 18.1 19.5   704 – Lincoln Laboratory ETS, New Mexico MPS 66214
2002 11 07.30189 02 59 10.32 +14 36 17.1 20.0   704 – Lincoln Laboratory ETS, New Mexico MPS 66214
2002 11 07.31940 02 59 09.21 +14 36 15.2 19.8   704 – Lincoln Laboratory ETS, New Mexico MPS 66214
2002 11 07.33689 02 59 08.03 +14 36 14.0 19.7   704 – Lincoln Laboratory ETS, New Mexico MPS 66214
2002 11 11.37605 02 54 54.37 +14 30 50.2 19.5 V 291 – LPL/Spacewatch II MPS 66214
2002 11 11.40000 02 54 52.84 +14 30 48.3 19.6 V 291 – LPL/Spacewatch II MPS 66214
2002 11 11.42404 02 54 51.30 +14 30 46.2 19.5 V 291 – LPL/Spacewatch II MPS 66214
2002 11 12.35111 02 53 54.14 +14 29 36.3 19.5   644 – Palomar Mountain/NEAT MPS 66214
2002 11 12.37210 02 53 52.77 +14 29 34.2 19.4   644 – Palomar Mountain/NEAT MPS 66214
2002 11 12.39319 02 53 51.44 +14 29 33.1 19.3   644 – Palomar Mountain/NEAT MPS 66214
2002 11 23.17902 02 43 37.09 +14 18 58.8 19.6   644 – Palomar Mountain/NEAT MPS 68106
2002 11 23.19953 02 43 36.02 +14 18 58.0 19.6   644 – Palomar Mountain/NEAT MPS 68106
2002 11 23.21936 02 43 34.92 +14 18 57.6 20.0   644 – Palomar Mountain/NEAT MPS 68106
2002 12 01.22727 02 37 34.44 +14 16 50.0 20.3   704 – Lincoln Laboratory ETS, New Mexico MPS 68106
2002 12 01.24196 02 37 33.90 +14 16 49.0 19.7   704 – Lincoln Laboratory ETS, New Mexico MPS 68106
2002 12 01.25662 02 37 33.38 +14 16 46.2 19.4   704 – Lincoln Laboratory ETS, New Mexico MPS 68106
2002 12 05.24253 02 35 14.26 +14 18 08.6 20.2   704 – Lincoln Laboratory ETS, New Mexico MPS 68106
2002 12 05.25775 02 35 13.78 +14 18 10.0 20.2   704 – Lincoln Laboratory ETS, New Mexico MPS 68106
2002 12 05.27308 02 35 13.33 +14 18 10.2 20.3   704 – Lincoln Laboratory ETS, New Mexico MPS 68106
2002 12 10.08766 02 33 05.44 +14 22 13.0 20.5   644 – Palomar Mountain/NEAT MPS 68106
2002 12 10.10915 02 33 04.93 +14 22 14.5 20.5   644 – Palomar Mountain/NEAT MPS 68106
2002 12 10.13063 02 33 04.38 +14 22 16.0 20.0   644 – Palomar Mountain/NEAT MPS 68106
2002 12 11.13418 02 32 43.32 +14 23 27.8 21.3 V 291 – LPL/Spacewatch II MPS 68106
2002 12 11.15798 02 32 42.87 +14 23 29.9 21.2 V 291 – LPL/Spacewatch II MPS 68106
2002 12 11.18193 02 32 42.36 +14 23 31.0 21.6 V 291 – LPL/Spacewatch II MPS 68106
2004 02 16.28070 10 15 30.36 +18 47 32.9 21.4 V 691 – Steward Observatory, Kitt Peak-Spacewatch MPS 110692
2004 02 16.30729 10 15 28.83 +18 47 41.6 21.5 V 691 – Steward Observatory, Kitt Peak-Spacewatch MPS 110692
2004 02 16.33735 10 15 27.06 +18 47 51.3 22.1 V 691 – Steward Observatory, Kitt Peak-Spacewatch MPS 110692
2004 03 16.12494 09 50 29.26 +20 34 55.1 22.1 V 691 – Steward Observatory, Kitt Peak-Spacewatch MPS 101183
2004 03 16.15158 09 50 28.15 +20 34 58.2 21.9 V 691 – Steward Observatory, Kitt Peak-Spacewatch MPS 101183
2004 03 16.17880 09 50 26.99 +20 35 00.9 21.8 V 691 – Steward Observatory, Kitt Peak-Spacewatch MPS 101183
2005 04 11.40825 15 30 08.58 -16 40 53.0 20.3 R G96 – Mt. Lemmon Survey MPS 132463
2005 04 11.41483 15 30 08.28 -16 40 53.1 19.3 R G96 – Mt. Lemmon Survey MPS 132463
2005 04 11.42140 15 30 08.11 -16 40 52.1 19.9 R G96 – Mt. Lemmon Survey MPS 132463
2005 04 11.42796 15 30 07.91 -16 40 52.0 17.6 R G96 – Mt. Lemmon Survey MPS 132463
2005 05 07.33191 15 08 42.75 -15 55 18.7 19.7 R G96 – Mt. Lemmon Survey MPS 134671
2005 05 07.33914 15 08 42.30 -15 55 17.7 19.5 R G96 – Mt. Lemmon Survey MPS 134671
2005 05 07.34638 15 08 41.86 -15 55 16.7 19.9 R G96 – Mt. Lemmon Survey MPS 134671
2005 05 07.35360 15 08 41.41 -15 55 15.6 19.8 R G96 – Mt. Lemmon Survey MPS 134671
2005 05 12.28963 15 03 41.91 -15 43 52.3 20.3 V 691 – Steward Observatory, Kitt Peak-Spacewatch MPS 134671
2005 05 12.31060 15 03 40.58 -15 43 49.7 20.6 V 691 – Steward Observatory, Kitt Peak-Spacewatch MPS 134671
2005 05 12.33261 15 03 39.21 -15 43 46.3 20.8 V 691 – Steward Observatory, Kitt Peak-Spacewatch MPS 134671
2005 06 08.18595 14 40 08.47 -14 55 45.2   701 – Junk Bond Observatory, Sierra Vista MPS 136427
2005 06 08.20907 14 40 07.50 -14 55 43.5   701 – Junk Bond Observatory, Sierra Vista MPS 136427
2005 06 08.23219 14 40 06.65 -14 55 43.4   701 – Junk Bond Observatory, Sierra Vista MPS 136427
2005 06 12.18801 14 37 49.58 -14 53 17.9 20.2 V G96 – Mt. Lemmon Survey MPS 136812
2005 06 12.19463 14 37 49.36 -14 53 17.8 20.4 V G96 – Mt. Lemmon Survey MPS 136812
2005 06 12.20119 14 37 49.15 -14 53 17.5 20.8 V G96 – Mt. Lemmon Survey MPS 136812
2005 06 12.20778 14 37 48.90 -14 53 17.6 20.7 V G96 – Mt. Lemmon Survey MPS 136812
2006 09 30.42910 03 26 13.88 +14 55 53.5 19.2 V G96 – Mt. Lemmon Survey MPS 183487
2006 09 30.43646 03 26 13.74 +14 55 53.8 19.2 V G96 – Mt. Lemmon Survey MPS 183487
